Location: Buckland
(65.9785°N, 161.1281°W)
Time: 03:10:00
(UTC+00:00)

Transit 2A Rocket - Visible Passes

Search period start: 29 July 2021 00:00
Search period end: 08 August 2021 00:00
Orbit: 589 x 913 km, 66.7° (Epoch: 28 July)

Date Brightness Start Highest point End Pass type
(mag) Time Alt. Az. Time Alt. Az. Time Alt. Az.
01 Aug 7.3 10:52:06 10° W 10:53:28 11° WSW 10:54:51 10° WSW visible
02 Aug 7.1 10:08:15 10° WNW 10:11:18 15° WSW 10:14:28 10° SW visible
05 Aug 7.4 09:43:24 10° W 09:45:38 13° WSW 09:47:56 10° SW visible
